DLH8P EDDM-KBOS

Flight info

Callsign DLH8P
Flight time N/A
Altitude 36000
Route OLASO2S/26L OLASO Z714 PELOG UM164 LUPEN/N0481F370 DCT POGOL DCT LUVAL DCT ROTSI/N0476F360 DCT AMODO DCT COHPA UM729 RESMI UN491 LGL UN502 JSY DCT LIZAD/N0479F380 DCT LESLU DCT LIMRI/M084F390 DCT 53N020W 53N030W 53N040W 52N050W DCT TUDEP/N0467F380 DCT EBONY DCT AJJAY OOSHN5
Aircraft A388/J-SADE2E3GHIJ3J4J5LM1OP2RWXYZ/LB1D1

Departure

Time 2026-05-05 18:19
Airport Munich Airport (EDDM)

Arrival

Time N/A
Airport Boston Logan International Airport (KBOS)
Time Latitude Longitude Altitude Speed Heading
2026-05-05 17:31 48.35017 11.79389 1490 ft 0 kts 263°
2026-05-05 17:55 48.35017 11.79390 1490 ft 0 kts 263°
2026-05-05 18:01 48.35018 11.79405 1479 ft 4 kts 263°
2026-05-05 18:02 48.35021 11.79445 1479 ft 4 kts 263°
2026-05-05 18:02 48.35024 11.79477 1475 ft 4 kts 258°
2026-05-05 18:02 48.35032 11.79508 1475 ft 4 kts 228°
2026-05-05 18:02 48.35047 11.79522 1475 ft 4 kts 188°
2026-05-05 18:03 48.35070 11.79521 1475 ft 4 kts 173°
2026-05-05 18:03 48.35095 11.79516 1475 ft 1 kts 173°
2026-05-05 18:06 48.35096 11.79516 1475 ft 0 kts 173°
2026-05-05 18:10 48.35091 11.79517 1490 ft 3 kts 173°
2026-05-05 18:10 48.35058 11.79523 1475 ft 7 kts 173°
2026-05-05 18:10 48.35016 11.79533 1479 ft 1 kts 144°
2026-05-05 18:11 48.35007 11.79546 1477 ft 3 kts 126°
2026-05-05 18:11 48.34997 11.79585 1478 ft 6 kts 103°
2026-05-05 18:11 48.34985 11.79645 1479 ft 4 kts 132°
2026-05-05 18:11 48.34960 11.79672 1480 ft 2 kts 157°
2026-05-05 18:12 48.34946 11.79676 1478 ft 4 kts 173°
2026-05-05 18:12 48.34907 11.79684 1483 ft 8 kts 173°
2026-05-05 18:12 48.34884 11.79688 1489 ft 3 kts 173°
2026-05-05 18:12 48.34851 11.79694 1486 ft 6 kts 173°
2026-05-05 18:13 48.34823 11.79703 1478 ft 2 kts 144°
2026-05-05 18:13 48.34815 11.79715 1477 ft 3 kts 122°
2026-05-05 18:13 48.34808 11.79760 1480 ft 6 kts 90°
2026-05-05 18:13 48.34814 11.79839 1484 ft 9 kts 83°
2026-05-05 18:14 48.34823 11.79952 1478 ft 12 kts 83°
2026-05-05 18:14 48.34834 11.80092 1482 ft 15 kts 84°
2026-05-05 18:14 48.34845 11.80256 1486 ft 17 kts 85°
2026-05-05 18:14 48.34832 11.80341 1475 ft 1 kts 124°
2026-05-05 18:15 48.34821 11.80363 1475 ft 5 kts 134°
2026-05-05 18:15 48.34790 11.80388 1478 ft 6 kts 168°
2026-05-05 18:15 48.34733 11.80399 1482 ft 10 kts 174°
2026-05-05 18:15 48.34704 11.80403 1481 ft 2 kts 174°
2026-05-05 18:16 48.34674 11.80408 1483 ft 7 kts 173°
2026-05-05 18:16 48.34616 11.80418 1487 ft 10 kts 174°
2026-05-05 18:16 48.34543 11.80430 1490 ft 10 kts 174°
2026-05-05 18:16 48.34506 11.80436 1487 ft 1 kts 186°
2026-05-05 18:17 48.34502 11.80435 1486 ft 1 kts 201°
2026-05-05 18:17 48.34497 11.80432 1486 ft 3 kts 216°
2026-05-05 18:17 48.34482 11.80404 1475 ft 4 kts 246°
2026-05-05 18:17 48.34472 11.80354 1485 ft 0 kts 262°
2026-05-05 18:18 48.34472 11.80353 1486 ft 0 kts 262°
2026-05-05 18:18 48.34470 11.80330 1488 ft 4 kts 262°
2026-05-05 18:18 48.34452 11.80107 1490 ft 54 kts 263°
2026-05-05 18:18 48.34381 11.79166 1490 ft 123 kts 263°
2026-05-05 18:19 48.34265 11.77640 1480 ft 166 kts 264°
2026-05-05 18:19 48.34154 11.75824 1734 ft 177 kts 265°
2026-05-05 18:19 48.34042 11.74011 2311 ft 172 kts 267°
2026-05-05 18:19 48.33957 11.72257 2906 ft 166 kts 268°
2026-05-05 18:20 48.33830 11.70519 3267 ft 173 kts 265°
2026-05-05 18:20 48.33666 11.68646 3404 ft 189 kts 265°
2026-05-05 18:20 48.33481 11.66640 3527 ft 203 kts 263°
2026-05-05 18:20 48.33277 11.64448 3627 ft 215 kts 263°
2026-05-05 18:21 48.33091 11.62121 3828 ft 239 kts 264°
2026-05-05 18:21 48.32909 11.59560 4288 ft 252 kts 265°
2026-05-05 18:21 48.32723 11.56923 4946 ft 255 kts 264°
2026-05-05 18:21 48.32533 11.54261 5611 ft 260 kts 263°
2026-05-05 18:22 48.32332 11.51507 6303 ft 261 kts 263°
2026-05-05 18:22 48.32131 11.48782 6886 ft 265 kts 262°
2026-05-05 18:22 48.31925 11.46011 7498 ft 268 kts 262°
2026-05-05 18:22 48.31718 11.43227 8288 ft 269 kts 262°
2026-05-05 18:23 48.31511 11.40459 9043 ft 271 kts 262°
2026-05-05 18:23 48.31296 11.37592 9797 ft 274 kts 262°
2026-05-05 18:23 48.31082 11.34736 10459 ft 277 kts 262°
2026-05-05 18:23 48.30864 11.31851 11100 ft 279 kts 262°
2026-05-05 18:24 48.30647 11.28980 11762 ft 282 kts 262°
2026-05-05 18:24 48.30407 11.26002 12102 ft 296 kts 261°
2026-05-05 18:24 48.30122 11.22849 12276 ft 314 kts 260°
2026-05-05 18:24 48.29817 11.19526 12535 ft 327 kts 260°
2026-05-05 18:25 48.29506 11.16103 13046 ft 333 kts 260°
2026-05-05 18:25 48.29296 11.13767 13470 ft 335 kts 260°
2026-05-05 18:25 48.28881 11.09143 14170 ft 339 kts 260°
2026-05-05 18:25 48.28565 11.05618 14698 ft 342 kts 260°
2026-05-05 18:26 48.28244 11.02050 15070 ft 346 kts 260°
2026-05-05 18:26 48.27920 10.98471 15418 ft 347 kts 260°
2026-05-05 18:26 48.27592 10.94864 15912 ft 350 kts 260°
2026-05-05 18:26 48.27260 10.91225 16432 ft 353 kts 260°
2026-05-05 18:27 48.26924 10.87562 16946 ft 356 kts 260°
2026-05-05 18:27 48.26583 10.83859 17422 ft 360 kts 260°
2026-05-05 18:27 48.26239 10.80127 17920 ft 363 kts 260°
2026-05-05 18:27 48.25890 10.76360 18374 ft 366 kts 260°
2026-05-05 18:28 48.25178 10.68712 19200 ft 372 kts 260°
2026-05-05 18:28 48.24818 10.64861 19633 ft 374 kts 260°
2026-05-05 18:28 48.24454 10.60982 20056 ft 377 kts 260°
2026-05-05 18:29 48.24087 10.57082 20477 ft 379 kts 260°
2026-05-05 18:29 48.23715 10.53157 20897 ft 381 kts 260°
2026-05-05 18:29 48.23339 10.49207 21313 ft 384 kts 260°
2026-05-05 18:29 48.22961 10.45240 21738 ft 386 kts 260°
2026-05-05 18:30 48.22583 10.41293 22126 ft 388 kts 260°
2026-05-05 18:30 48.22197 10.37277 22535 ft 390 kts 259°
2026-05-05 18:30 48.21807 10.33240 22932 ft 393 kts 259°
2026-05-05 18:30 48.21413 10.29168 23282 ft 398 kts 259°
2026-05-05 18:31 48.21018 10.25026 23481 ft 404 kts 261°
2026-05-05 18:31 48.20886 10.20800 23844 ft 408 kts 269°
2026-05-05 18:31 48.21033 10.16546 24189 ft 410 kts 270°
2026-05-05 18:31 48.21178 10.12268 24530 ft 412 kts 270°
2026-05-05 18:32 48.21311 10.07962 24882 ft 414 kts 270°
2026-05-05 18:32 48.21440 10.03651 25232 ft 416 kts 269°
2026-05-05 18:32 48.21567 9.99312 25671 ft 415 kts 270°
2026-05-05 18:32 48.21694 9.94984 26072 ft 417 kts 269°
2026-05-05 18:33 48.21817 9.90629 26437 ft 420 kts 269°
2026-05-05 18:33 48.21975 9.86235 26858 ft 423 kts 270°
2026-05-05 18:33 48.22172 9.81825 27259 ft 425 kts 271°
2026-05-05 18:33 48.22375 9.77393 27660 ft 427 kts 270°
2026-05-05 18:34 48.22573 9.72931 28085 ft 430 kts 270°
2026-05-05 18:34 48.22776 9.68453 28501 ft 433 kts 272°
2026-05-05 18:34 48.23237 9.63965 28919 ft 438 kts 278°
2026-05-05 18:34 48.23827 9.59480 29320 ft 440 kts 277°
2026-05-05 18:35 48.24404 9.54952 29737 ft 443 kts 277°
2026-05-05 18:35 48.24977 9.50396 30124 ft 445 kts 277°
2026-05-05 18:35 48.25549 9.45833 30538 ft 447 kts 277°
2026-05-05 18:35 48.26096 9.41212 30853 ft 450 kts 276°
2026-05-05 18:36 48.26604 9.36571 31223 ft 452 kts 276°
2026-05-05 18:36 48.27108 9.31906 31581 ft 454 kts 276°
2026-05-05 18:36 48.27617 9.27217 31935 ft 457 kts 276°
2026-05-05 18:36 48.28132 9.22496 32273 ft 459 kts 276°
2026-05-05 18:37 48.28651 9.17753 32562 ft 463 kts 276°
2026-05-05 18:37 48.29174 9.12951 32705 ft 469 kts 276°
2026-05-05 18:37 48.29702 9.08099 33095 ft 471 kts 276°
2026-05-05 18:37 48.30230 9.03234 33465 ft 473 kts 276°
2026-05-05 18:38 48.30759 8.98332 33746 ft 477 kts 276°
2026-05-05 18:38 48.31289 8.93410 34045 ft 479 kts 276°
2026-05-05 18:38 48.31820 8.88449 34337 ft 481 kts 276°
2026-05-05 18:38 48.32350 8.83478 34653 ft 483 kts 276°
2026-05-05 18:39 48.32878 8.78502 35048 ft 482 kts 276°
2026-05-05 18:39 48.33403 8.73536 35455 ft 481 kts 276°
2026-05-05 18:39 48.33926 8.68569 35811 ft 482 kts 276°
2026-05-05 18:39 48.34450 8.63558 35850 ft 486 kts 276°
2026-05-05 18:40 48.35489 8.53584 35843 ft 483 kts 276°
2026-05-05 18:40 48.36519 8.43588 35847 ft 484 kts 276°
2026-05-05 18:41 48.37543 8.33584 35846 ft 484 kts 276°
2026-05-05 18:41 48.38557 8.23576 35834 ft 483 kts 275°
2026-05-05 18:42 48.39560 8.13591 35817 ft 482 kts 275°
2026-05-05 18:42 48.40554 8.03614 35812 ft 482 kts 275°
2026-05-05 18:43 48.41530 7.93717 35803 ft 481 kts 275°
2026-05-05 18:43 48.42502 7.83772 35798 ft 480 kts 275°
2026-05-05 18:44 48.43382 7.73822 35788 ft 479 kts 274°
2026-05-05 18:44 48.44150 7.63848 35789 ft 479 kts 274°
2026-05-05 18:45 48.44940 7.53875 35796 ft 480 kts 274°
2026-05-05 18:45 48.45738 7.43871 35807 ft 482 kts 274°
2026-05-05 18:46 48.46132 7.38917 35777 ft 470 kts 274°
2026-05-05 18:46 48.46515 7.34060 35857 ft 469 kts 274°
2026-05-05 18:46 48.47280 7.24125 35838 ft 486 kts 274°
2026-05-05 18:47 48.48055 7.13998 35839 ft 484 kts 274°
2026-05-05 18:47 48.48818 7.03896 35835 ft 485 kts 274°
2026-05-05 18:48 48.49573 6.93780 35838 ft 485 kts 274°
2026-05-05 18:48 48.50319 6.83660 35835 ft 486 kts 274°
2026-05-05 18:49 48.51057 6.73517 35833 ft 486 kts 274°
2026-05-05 18:49 48.51787 6.63386 35831 ft 486 kts 274°
2026-05-05 18:50 48.52508 6.53248 35829 ft 486 kts 273°
2026-05-05 18:50 48.53218 6.43110 35823 ft 487 kts 274°
2026-05-05 18:51 48.53923 6.32937 35825 ft 487 kts 273°
2026-05-05 18:51 48.54617 6.22775 35826 ft 487 kts 273°
2026-05-05 18:52 48.55304 6.12593 35831 ft 488 kts 273°
2026-05-05 18:52 48.55982 6.02404 35823 ft 488 kts 274°
2026-05-05 18:53 48.56652 5.92196 35829 ft 489 kts 273°
2026-05-05 18:53 48.57313 5.81983 35831 ft 489 kts 273°
2026-05-05 18:54 48.57965 5.71761 35830 ft 489 kts 273°
2026-05-05 18:54 48.58608 5.61539 35830 ft 489 kts 274°
2026-05-05 18:55 48.59240 5.51367 35823 ft 490 kts 273°
2026-05-05 18:55 48.59865 5.41124 35823 ft 490 kts 273°
2026-05-05 18:56 48.60482 5.30875 35814 ft 490 kts 273°
2026-05-05 18:56 48.61091 5.20621 35819 ft 490 kts 273°
2026-05-05 18:57 48.61690 5.10359 35798 ft 490 kts 273°
2026-05-05 18:57 48.62281 5.00095 35803 ft 490 kts 273°
2026-05-05 18:58 48.62863 4.89822 35801 ft 491 kts 273°
2026-05-05 18:58 48.63339 4.81282 35802 ft 491 kts 273°
2026-05-05 18:59 48.63904 4.70996 35791 ft 492 kts 273°
2026-05-05 18:59 48.64462 4.60682 35796 ft 492 kts 273°
2026-05-05 19:00 48.65010 4.50367 35801 ft 493 kts 273°
2026-05-05 19:00 48.65550 4.40032 35801 ft 493 kts 273°
2026-05-05 19:01 48.66081 4.29683 35796 ft 494 kts 273°
2026-05-05 19:01 48.66605 4.19313 35802 ft 495 kts 273°
2026-05-05 19:02 48.67119 4.08931 35807 ft 495 kts 273°
2026-05-05 19:02 48.67624 3.98540 35805 ft 495 kts 273°
2026-05-05 19:03 48.68120 3.88139 35806 ft 495 kts 273°
2026-05-05 19:03 48.68607 3.77745 35804 ft 495 kts 272°
2026-05-05 19:04 48.69084 3.67349 35797 ft 495 kts 272°
2026-05-05 19:04 48.69551 3.56954 35799 ft 495 kts 272°
2026-05-05 19:05 48.70009 3.46571 35803 ft 495 kts 272°
2026-05-05 19:05 48.70458 3.36173 35798 ft 495 kts 272°
2026-05-05 19:06 48.70898 3.25756 35806 ft 496 kts 272°
2026-05-05 19:06 48.71329 3.15344 35802 ft 496 kts 272°
2026-05-05 19:07 48.71751 3.04911 35806 ft 496 kts 272°
2026-05-05 19:07 48.72164 2.94468 35813 ft 497 kts 272°
2026-05-05 19:08 48.72567 2.84016 35806 ft 497 kts 272°
2026-05-05 19:08 48.72961 2.73562 35839 ft 497 kts 272°
2026-05-05 19:09 48.73346 2.63108 35841 ft 497 kts 272°
2026-05-05 19:09 48.73723 2.52619 35825 ft 498 kts 272°
2026-05-05 19:10 48.74089 2.42133 35827 ft 499 kts 272°
2026-05-05 19:10 48.74447 2.31632 35827 ft 499 kts 271°
2026-05-05 19:11 48.74795 2.21129 35833 ft 499 kts 271°
2026-05-05 19:11 48.75134 2.10613 35833 ft 500 kts 271°
2026-05-05 19:12 48.75464 2.00094 35830 ft 500 kts 271°
2026-05-05 19:12 48.75781 1.89649 35837 ft 500 kts 271°
2026-05-05 19:13 48.76091 1.79128 35831 ft 500 kts 271°
2026-05-05 19:13 48.76389 1.68748 35794 ft 491 kts 271°
2026-05-05 19:14 48.76677 1.58308 35841 ft 497 kts 271°
2026-05-05 19:14 48.76958 1.47834 35845 ft 497 kts 271°
2026-05-05 19:15 48.77227 1.37430 35847 ft 497 kts 271°
2026-05-05 19:15 48.77490 1.26882 35850 ft 498 kts 271°
2026-05-05 19:16 48.77741 1.16468 35861 ft 497 kts 271°
2026-05-05 19:16 48.77984 1.05989 35854 ft 497 kts 271°
2026-05-05 19:17 48.78217 0.95507 35865 ft 497 kts 270°
2026-05-05 19:17 48.78441 0.85034 35869 ft 497 kts 270°
2026-05-05 19:18 48.78660 0.74549 35867 ft 498 kts 270°
2026-05-05 19:18 48.78873 0.64047 35876 ft 498 kts 270°
2026-05-05 19:19 48.79177 0.53567 35878 ft 499 kts 277°
2026-05-05 19:19 48.80801 0.43322 35887 ft 500 kts 284°
2026-05-05 19:20 48.82661 0.33158 35893 ft 500 kts 284°
2026-05-05 19:20 48.84495 0.22984 35889 ft 500 kts 284°
2026-05-05 19:21 48.86315 0.12799 35901 ft 500 kts 284°
2026-05-05 19:21 48.88124 0.02612 35903 ft 499 kts 284°
2026-05-05 19:22 48.89916 -0.07534 36163 ft 502 kts 284°
2026-05-05 19:22 48.90819 -0.12666 36534 ft 502 kts 284°
2026-05-05 19:22 48.91714 -0.17769 37061 ft 498 kts 284°
2026-05-05 19:23 48.92603 -0.22849 37497 ft 497 kts 284°
2026-05-05 19:23 48.93484 -0.27914 37847 ft 497 kts 283°
2026-05-05 19:23 48.95199 -0.38054 37911 ft 490 kts 283°
2026-05-05 19:24 48.96883 -0.48114 37910 ft 492 kts 283°
2026-05-05 19:24 48.98571 -0.58217 37912 ft 492 kts 283°
2026-05-05 19:25 49.00252 -0.68325 37913 ft 492 kts 282°
2026-05-05 19:25 49.01923 -0.78439 37916 ft 492 kts 282°
2026-05-05 19:26 49.03585 -0.88558 37921 ft 493 kts 283°
2026-05-05 19:26 49.05243 -0.98701 37921 ft 493 kts 282°
2026-05-05 19:27 49.06889 -1.08848 37928 ft 493 kts 282°